Flag for Australia Weather past 2 weeks in Adelaide, South Australia, Australia

Now
73 °F

Clear.


Feels Like: 77 °F
Forecast: 51 / 67 °F
Wind: 13 mph from North

Location: Adelaide Airport


UV Index: 3 (Moderate)

Visibility: 10 mi


Pressure: 29.86 "Hg

Humidity: 44%

Dew point: 50 °F

Location of AdelaideLocation

Historic Weather in Adelaide

°F

Adelaide temperature yesterday

Maximum temperature yesterday: 70 °F (at 2:30 PM)
Minimum temperature yesterday: 50 °F (at 5:30 AM)
Average temperature yesterday: 61 °F

Past Weeks' High & Low Weather Summary

 TemperatureHumidityPressure
High82 °F (Apr 21, 4:00 PM)100% (Apr 8, 6:00 PM)30.24 "Hg (Apr 8, 6:00 PM)
Low50 °F (Apr 13, 6:30 AM)26% (Apr 7, 11:30 AM)29.83 "Hg (Apr 10, 2:00 AM)
Average64 °F65%30.05 "Hg
* Reported Apr 6 8:30 PM — Apr 21 8:30 PM, Adelaide, Weather by CustomWeather, © 2014

Note: Actual official high and low records may vary slightly from our data, if they occured in-between our weather recording intervals... More about our weather records

Advertising

Historic Weather Conditions — Data for Previous 24 hours

 ConditionsComfort  
Time TempWeatherWind HumidityBarometerVisibility
8:30 PM
Apr 21
73 °FClear.10 mph47%29.86 "Hg10 mi
8:00 PM73 °FClear.8 mph47%29.86 "Hg10 mi
7:30 PM75 °FClear.9 mph36%29.86 "Hg10 mi
7:00 PM79 °FClear.10 mph28%29.83 "Hg10 mi
6:30 PM79 °FClear.15 mph28%29.83 "Hg10 mi
6:00 PM79 °FClear.16 mph30%29.83 "Hg10 mi
5:30 PM79 °FClear.16 mph32%29.83 "Hg10 mi
5:00 PM81 °FSunny.20 mph28%29.83 "Hg10 mi
4:30 PM81 °FSunny.22 mph28%29.83 "Hg10 mi
4:00 PM82 °FSunny.20 mph26%29.83 "Hg10 mi
3:30 PM81 °FSunny.21 mph30%29.83 "Hg10 mi
3:00 PM81 °FSunny.22 mph30%29.83 "Hg10 mi
2:30 PM81 °FSunny.24 mph30%29.83 "Hg10 mi
2:00 PM81 °FSunny.22 mph30%29.83 "Hg10 mi
1:30 PM81 °FSunny.23 mph30%29.86 "Hg10 mi
1:00 PM81 °FSunny.24 mph30%29.86 "Hg10 mi
12:30 PM81 °FSunny.25 mph28%29.86 "Hg10 mi
12:16 PM81 °FSunny.23 mph30%29.89 "Hg10 mi
11:30 AM79 °FSunny.24 mph32%29.89 "Hg10 mi
11:00 AM79 °FSunny.20 mph32%29.92 "Hg10 mi
10:30 AM77 °FSunny.21 mph32%29.92 "Hg10 mi
10:00 AM75 °FSunny.20 mph34%29.92 "Hg10 mi
9:30 AM73 °FSunny.16 mph36%29.92 "Hg10 mi
9:00 AM73 °FSunny.17 mph36%29.95 "Hg10 mi
8:30 AM72 °FSunny.16 mph38%29.92 "Hg10 mi
8:00 AM70 °FSunny.15 mph38%29.92 "Hg10 mi
7:30 AM68 °FSunny.13 mph40%29.92 "Hg10 mi
7:00 AM68 °FSunny.13 mph40%29.92 "Hg10 mi
6:30 AM66 °FSunny.13 mph43%29.92 "Hg10 mi
6:00 AM68 °FClear.13 mph40%29.92 "Hg10 mi
5:30 AM68 °FClear.15 mph40%29.92 "Hg10 mi
5:00 AM68 °FClear.15 mph40%29.92 "Hg10 mi
4:30 AM68 °FClear.15 mph40%29.92 "Hg10 mi
4:00 AM68 °FClear.17 mph40%29.92 "Hg10 mi
3:30 AM68 °FClear.13 mph40%29.95 "Hg10 mi
3:00 AM68 °FClear.14 mph40%29.95 "Hg10 mi
2:30 AM68 °FClear.15 mph40%29.95 "Hg10 mi
2:00 AM66 °FClear.13 mph46%29.95 "Hg10 mi
1:30 AM66 °FClear.10 mph49%29.98 "Hg10 mi
1:00 AM64 °FClear.13 mph52%29.98 "Hg10 mi
12:30 AM64 °FClear.14 mph56%29.98 "Hg10 mi
12:00 AM63 °FClear.12 mph59%30.01 "Hg10 mi
11:30 PM
Apr 20
61 °FClear.8 mph63%30.01 "Hg10 mi
11:00 PM61 °FClear.7 mph68%30.01 "Hg10 mi
10:30 PM59 °FClear.5 mph77%30.04 "Hg10 mi
10:00 PM59 °FClear.7 mph77%30.04 "Hg10 mi
Weather by CustomWeather, © 2014

See weather overview